When you browse on this site, cookies collect data to enhance your experience and personalize the content and advertising you see.
Visit our Privacy Policy to learn more. By continuing to use the site, you agree to this use of cookies and data.
EN

Hourly Weather Bobki

Today, 28 September, Monday

Time Temperature Precipitation Wind Pressure Humidity
00:00 +8°C° 0 mm 2 mps 746 mmHg 83%
01:00 +7°C° 0 mm 2 mps 747 mmHg 84%
02:00 +7°C° 0 mm 2 mps 747 mmHg 85%
03:00 +7°C° 0 mm 2 mps 747 mmHg 85%
04:00 +7°C° 0 mm 2 mps 747 mmHg 86%
05:00 +7°C° 0 mm 2 mps 747 mmHg 85%
06:00 +8°C° 0 mm 2 mps 747 mmHg 85%
07:00 +8°C° 0 mm 2 mps 748 mmHg 82%
08:00 +10°C° 0 mm 3 mps 748 mmHg 76%
09:00 +12°C° 0 mm 3 mps 747 mmHg 69%
10:00 +14°C° 0 mm 3 mps 747 mmHg 63%
11:00 +15°C° 0 mm 4 mps 747 mmHg 60%
12:00 +17°C° 0 mm 4 mps 747 mmHg 57%
13:00 +18°C° 0 mm 4 mps 747 mmHg 56%
14:00 +17°C° 0 mm 4 mps 746 mmHg 59%
15:00 +17°C° 0 mm 4 mps 746 mmHg 63%
16:00 +17°C° 0 mm 4 mps 746 mmHg 66%
17:00 +15°C° 0 mm 4 mps 745 mmHg 70%
18:00 +14°C° 0 mm 4 mps 745 mmHg 73%
19:00 +14°C° 0 mm 4 mps 745 mmHg 77%
20:00 +13°C° 0 mm 4 mps 745 mmHg 79%
21:00 +12°C° 0 mm 3 mps 745 mmHg 81%
22:00 +12°C° 0 mm 3 mps 745 mmHg 83%
23:00 +13°C° 0 mm 2 mps 745 mmHg 83%

Tomorrow, 29 September, Tuesday

Time Temperature Precipitation Wind Pressure Humidity
00:00 +12°C° 0 mm 2 mps 745 mmHg 83%
01:00 +12°C° 0 mm 2 mps 745 mmHg 83%
02:00 +12°C° 0 mm 2 mps 745 mmHg 84%
03:00 +12°C° 0 mm 1 mps 744 mmHg 84%
04:00 +12°C° 0 mm 1 mps 744 mmHg 85%
05:00 +12°C° 0 mm 1 mps 744 mmHg 84%
06:00 +12°C° 0 mm 1 mps 744 mmHg 83%
07:00 +13°C° 0 mm 1 mps 745 mmHg 83%
08:00 +14°C° 0 mm 1 mps 745 mmHg 79%
09:00 +15°C° 0 mm 1 mps 745 mmHg 74%
10:00 +17°C° 0 mm 2 mps 745 mmHg 70%
11:00 +16°C° 0 mm 1 mps 745 mmHg 72%
12:00 +16°C° 0 mm 1 mps 745 mmHg 74%
13:00 +16°C° 0 mm 1 mps 745 mmHg 76%
14:00 +16°C° 0.2 mm 1 mps 745 mmHg 79%
15:00 +15°C° 0.2 mm 1 mps 745 mmHg 82%
16:00 +15°C° 0.2 mm 2 mps 745 mmHg 86%
17:00 +15°C° 0.7 mm 2 mps 745 mmHg 88%
18:00 +14°C° 0.7 mm 2 mps 745 mmHg 91%
19:00 +14°C° 0.7 mm 2 mps 745 mmHg 94%
20:00 +14°C° 0.3 mm 2 mps 745 mmHg 93%
21:00 +14°C° 0.3 mm 2 mps 745 mmHg 92%
22:00 +14°C° 0.3 mm 2 mps 745 mmHg 91%
23:00 +14°C° 0.3 mm 2 mps 745 mmHg 90%

Day after tomorrow, 30 September, Wednesday

Time Temperature Precipitation Wind Pressure Humidity
00:00 +12°C° 0.3 mm 3 mps 745 mmHg 90%
01:00 +12°C° 0.3 mm 3 mps 744 mmHg 89%
02:00 +12°C° 0.2 mm 3 mps 744 mmHg 89%
03:00 +12°C° 0.2 mm 4 mps 744 mmHg 88%
04:00 +12°C° 0.2 mm 4 mps 744 mmHg 87%
05:00 +11°C° 0.7 mm 4 mps 744 mmHg 89%
06:00 +11°C° 0.7 mm 4 mps 743 mmHg 90%
07:00 +11°C° 0.7 mm 4 mps 743 mmHg 92%
08:00 +11°C° 0.3 mm 4 mps 743 mmHg 92%
09:00 +10°C° 0.3 mm 5 mps 743 mmHg 92%
10:00 +10°C° 0.3 mm 5 mps 743 mmHg 91%
11:00 +12°C° 0.3 mm 5 mps 743 mmHg 90%
12:00 +12°C° 0.3 mm 5 mps 743 mmHg 89%
13:00 +12°C° 0.3 mm 5 mps 742 mmHg 87%
14:00 +12°C° 0.4 mm 5 mps 742 mmHg 88%
15:00 +12°C° 0.4 mm 5 mps 742 mmHg 88%
16:00 +12°C° 0.4 mm 4 mps 742 mmHg 89%
17:00 +12°C° 0.5 mm 4 mps 742 mmHg 89%
18:00 +12°C° 0.5 mm 4 mps 742 mmHg 89%
19:00 +12°C° 0.5 mm 3 mps 742 mmHg 89%
20:00 +12°C° 0.1 mm 3 mps 742 mmHg 88%
21:00 +12°C° 0.1 mm 3 mps 742 mmHg 87%
22:00 +12°C° 0.1 mm 3 mps 742 mmHg 85%
23:00 +12°C° 0 mm 3 mps 742 mmHg 86%

1 October, Thursday

Time Temperature Precipitation Wind Pressure Humidity
00:00 +11°C° 0 mm 3 mps 741 mmHg 86%
01:00 +11°C° 0 mm 3 mps 741 mmHg 86%
02:00 +11°C° 0 mm 3 mps 741 mmHg 86%
03:00 +11°C° 0 mm 3 mps 741 mmHg 86%
04:00 +11°C° 0 mm 3 mps 741 mmHg 85%
05:00 +11°C° 0.2 mm 3 mps 741 mmHg 86%
06:00 +11°C° 0.2 mm 3 mps 741 mmHg 87%
07:00 +12°C° 0.2 mm 2 mps 741 mmHg 88%
08:00 +12°C° 0.3 mm 2 mps 740 mmHg 89%
09:00 +12°C° 0.3 mm 2 mps 740 mmHg 90%
10:00 +11°C° 0.3 mm 3 mps 740 mmHg 90%
11:00 +12°C° 0 mm 2 mps 740 mmHg 89%
12:00 +13°C° 0 mm 2 mps 740 mmHg 88%
13:00 +13°C° 0 mm 2 mps 740 mmHg 87%
14:00 +13°C° 0 mm 2 mps 740 mmHg 87%
15:00 +14°C° 0 mm 2 mps 740 mmHg 86%
16:00 +14°C° 0 mm 2 mps 740 mmHg 86%
17:00 +14°C° 0 mm 2 mps 740 mmHg 89%
18:00 +13°C° 0 mm 2 mps 741 mmHg 91%
19:00 +13°C° 0 mm 2 mps 741 mmHg 94%
20:00 +12°C° 0 mm 2 mps 741 mmHg 95%
21:00 +11°C° 0 mm 3 mps 741 mmHg 95%
22:00 +10°C° 0 mm 3 mps 741 mmHg 96%
23:00 +11°C° 0 mm 3 mps 741 mmHg 95%

2 October, Friday

Time Temperature Precipitation Wind Pressure Humidity
00:00 +11°C° 0 mm 3 mps 741 mmHg 95%
01:00 +11°C° 0 mm 3 mps 741 mmHg 95%
02:00 +11°C° 0 mm 3 mps 741 mmHg 95%
03:00 +11°C° 0 mm 3 mps 741 mmHg 95%
04:00 +11°C° 0 mm 3 mps 741 mmHg 95%
05:00 +11°C° 0 mm 3 mps 741 mmHg 94%
06:00 +11°C° 0 mm 3 mps 741 mmHg 93%
07:00 +11°C° 0 mm 3 mps 741 mmHg 92%
08:00 +12°C° 0 mm 3 mps 741 mmHg 88%
09:00 +14°C° 0 mm 3 mps 741 mmHg 83%
10:00 +16°C° 0 mm 3 mps 741 mmHg 78%
11:00 +16°C° 0 mm 3 mps 741 mmHg 77%
12:00 +17°C° 0 mm 4 mps 741 mmHg 76%
13:00 +17°C° 0 mm 4 mps 741 mmHg 74%
14:00 +17°C° 0 mm 4 mps 741 mmHg 76%
15:00 +15°C° 0 mm 4 mps 741 mmHg 78%
16:00 +15°C° 0 mm 4 mps 741 mmHg 79%
17:00 +14°C° 0 mm 4 mps 742 mmHg 82%
18:00 +13°C° 0 mm 4 mps 742 mmHg 85%
19:00 +13°C° 0 mm 5 mps 742 mmHg 89%
20:00 +12°C° 0 mm 4 mps 742 mmHg 89%
21:00 +12°C° 0 mm 4 mps 742 mmHg 90%
22:00 +12°C° 0 mm 4 mps 742 mmHg 90%
23:00 +12°C° 0 mm 4 mps 742 mmHg 89%

3 October, Saturday

Time Temperature Precipitation Wind Pressure Humidity
00:00 +12°C° 0 mm 4 mps 742 mmHg 88%
01:00 +12°C° 0 mm 4 mps 742 mmHg 87%
02:00 +12°C° 1 mm 4 mps 742 mmHg 89%
03:00 +12°C° 1 mm 4 mps 742 mmHg 92%
04:00 +12°C° 1 mm 5 mps 741 mmHg 94%
05:00 +12°C° 1.9 mm 5 mps 741 mmHg 94%
06:00 +13°C° 1.9 mm 6 mps 741 mmHg 94%
07:00 +13°C° 1.9 mm 6 mps 741 mmHg 93%
08:00 +13°C° 0.1 mm 6 mps 741 mmHg 91%
09:00 +14°C° 0.1 mm 7 mps 741 mmHg 89%
10:00 +14°C° 0.1 mm 7 mps 741 mmHg 86%
11:00 +15°C° 0 mm 7 mps 741 mmHg 81%
12:00 +17°C° 0 mm 6 mps 741 mmHg 76%
13:00 +19°C° 0 mm 6 mps 740 mmHg 71%
14:00 +19°C° 0 mm 5 mps 740 mmHg 71%
15:00 +19°C° 0 mm 4 mps 740 mmHg 72%
16:00 +20°C° 0 mm 4 mps 740 mmHg 72%
17:00 +19°C° 0 mm 4 mps 740 mmHg 73%
18:00 +19°C° 0 mm 4 mps 740 mmHg 74%
19:00 +18°C° 0 mm 4 mps 740 mmHg 75%
20:00 +18°C° 0 mm 4 mps 740 mmHg 76%
21:00 +18°C° 0 mm 4 mps 740 mmHg 76%
22:00 +18°C° 0 mm 4 mps 740 mmHg 77%
23:00 +18°C° 0 mm 4 mps 740 mmHg 77%
Show more